BAW726 EGLL-LOWW

Flight info

Callsign BAW726
Flight time 2h 2m
Altitude 37000
Route DET L6 DVR UL9 KONAN DCT KOK UL607 FERDI DCT MATUG DCT GUBAX DCT BARSU DCT EKSOS DCT LULAR DCT RUDAP DCT BUDEX BUDEX2W
Aircraft A320/M-SDE3FGHIRWY/LB1

Departure

Time 2026-05-06 19:40
Airport London Heathrow Airport (EGLL)

Arrival

Time 2026-05-06 21:42
Airport Vienna International Airport (LOWW)
Time Latitude Longitude Altitude Speed Heading
2026-05-06 19:03 51.47417 -0.48955 59 ft 0 kts 179°
2026-05-06 19:30 51.47423 -0.48956 86 ft 4 kts 179°
2026-05-06 19:30 51.47450 -0.48956 89 ft 4 kts 180°
2026-05-06 19:31 51.47471 -0.48956 90 ft 4 kts 183°
2026-05-06 19:31 51.47498 -0.48953 90 ft 4 kts 178°
2026-05-06 19:31 51.47530 -0.48965 88 ft 0 kts 153°
2026-05-06 19:33 51.47529 -0.48964 88 ft 1 kts 153°
2026-05-06 19:33 51.47517 -0.48950 89 ft 4 kts 141°
2026-05-06 19:33 51.47490 -0.48893 86 ft 8 kts 114°
2026-05-06 19:34 51.47484 -0.48786 89 ft 11 kts 83°
2026-05-06 19:34 51.47487 -0.48642 88 ft 14 kts 90°
2026-05-06 19:34 51.47487 -0.48473 88 ft 16 kts 89°
2026-05-06 19:34 51.47431 -0.48358 86 ft 16 kts 180°
2026-05-06 19:35 51.47310 -0.48359 86 ft 19 kts 180°
2026-05-06 19:35 51.47172 -0.48358 86 ft 21 kts 179°
2026-05-06 19:35 51.47021 -0.48355 87 ft 21 kts 180°
2026-05-06 19:35 51.46881 -0.48355 87 ft 13 kts 180°
2026-05-06 19:36 51.46835 -0.48355 86 ft 2 kts 180°
2026-05-06 19:36 51.46820 -0.48355 86 ft 5 kts 179°
2026-05-06 19:36 51.46765 -0.48356 86 ft 9 kts 189°
2026-05-06 19:36 51.46741 -0.48441 86 ft 10 kts 261°
2026-05-06 19:37 51.46679 -0.48468 86 ft 11 kts 178°
2026-05-06 19:37 51.46611 -0.48467 86 ft 1 kts 179°
2026-05-06 19:37 51.46598 -0.48467 86 ft 3 kts 179°
2026-05-06 19:37 51.46581 -0.48467 86 ft 4 kts 179°
2026-05-06 19:38 51.46524 -0.48467 86 ft 9 kts 180°
2026-05-06 19:38 51.46478 -0.48414 87 ft 10 kts 89°
2026-05-06 19:38 51.46479 -0.48347 87 ft 0 kts 90°
2026-05-06 19:39 51.46479 -0.48331 87 ft 6 kts 90°
2026-05-06 19:39 51.46480 -0.47966 88 ft 67 kts 90°
2026-05-06 19:39 51.46484 -0.46904 90 ft 121 kts 90°
2026-05-06 19:39 51.46489 -0.45337 92 ft 162 kts 90°
2026-05-06 19:40 51.46489 -0.43482 588 ft 166 kts 86°
2026-05-06 19:40 51.46408 -0.41597 1100 ft 178 kts 102°
2026-05-06 19:40 51.45787 -0.39731 1343 ft 205 kts 121°
2026-05-06 19:40 51.44952 -0.37712 1575 ft 229 kts 120°
2026-05-06 19:41 51.44072 -0.35456 1972 ft 252 kts 117°
2026-05-06 19:41 51.43455 -0.32802 2738 ft 257 kts 102°
2026-05-06 19:41 51.43013 -0.30005 3641 ft 260 kts 102°
2026-05-06 19:41 51.42586 -0.27156 4504 ft 265 kts 102°
2026-05-06 19:42 51.42178 -0.24253 5350 ft 269 kts 100°
2026-05-06 19:42 51.41778 -0.21298 6216 ft 273 kts 101°
2026-05-06 19:42 51.41378 -0.18323 6991 ft 278 kts 101°
2026-05-06 19:42 51.40966 -0.15274 7755 ft 282 kts 101°
2026-05-06 19:43 51.40547 -0.12178 8537 ft 286 kts 101°
2026-05-06 19:43 51.40116 -0.09027 9326 ft 291 kts 101°
2026-05-06 19:43 51.39677 -0.05837 10071 ft 295 kts 101°
2026-05-06 19:43 51.39219 -0.02534 10417 ft 315 kts 101°
2026-05-06 19:44 51.38731 0.00977 10591 ft 338 kts 102°
2026-05-06 19:44 51.38206 0.04730 10954 ft 351 kts 102°
2026-05-06 19:44 51.37666 0.08588 11569 ft 356 kts 102°
2026-05-06 19:44 51.37122 0.12469 12204 ft 360 kts 102°
2026-05-06 19:45 51.36753 0.15095 12642 ft 362 kts 102°
2026-05-06 19:45 51.36015 0.20329 13492 ft 366 kts 102°
2026-05-06 19:45 51.35452 0.24327 14110 ft 370 kts 102°
2026-05-06 19:45 51.35067 0.27059 14500 ft 372 kts 102°
2026-05-06 19:46 51.34503 0.31065 15056 ft 375 kts 102°
2026-05-06 19:46 51.33922 0.35155 15624 ft 378 kts 102°
2026-05-06 19:46 51.33334 0.39263 16167 ft 381 kts 102°
2026-05-06 19:46 51.32739 0.43416 16685 ft 383 kts 102°
2026-05-06 19:47 51.32142 0.47589 17243 ft 386 kts 102°
2026-05-06 19:47 51.31543 0.51767 17778 ft 390 kts 103°
2026-05-06 19:47 51.30932 0.56011 18316 ft 393 kts 103°
2026-05-06 19:47 51.30309 0.60307 18798 ft 397 kts 103°
2026-05-06 19:48 51.29614 0.64587 19302 ft 399 kts 105°
2026-05-06 19:48 51.28843 0.68877 19805 ft 402 kts 107°
2026-05-06 19:48 51.28028 0.73177 20301 ft 405 kts 107°
2026-05-06 19:48 51.27198 0.77488 20791 ft 408 kts 107°
2026-05-06 19:49 51.26374 0.81782 21252 ft 410 kts 107°
2026-05-06 19:49 51.25546 0.86168 21710 ft 413 kts 107°
2026-05-06 19:49 51.24723 0.90581 22163 ft 416 kts 107°
2026-05-06 19:49 51.23899 0.95029 22605 ft 418 kts 107°
2026-05-06 19:50 51.23079 0.99466 23050 ft 421 kts 107°
2026-05-06 19:50 51.22248 1.03969 23492 ft 423 kts 107°
2026-05-06 19:50 51.21412 1.08486 23868 ft 426 kts 107°
2026-05-06 19:50 51.20566 1.13035 24238 ft 428 kts 107°
2026-05-06 19:51 51.19712 1.17594 24608 ft 430 kts 107°
2026-05-06 19:51 51.18849 1.22184 24971 ft 432 kts 107°
2026-05-06 19:51 51.17979 1.26783 25327 ft 434 kts 107°
2026-05-06 19:51 51.17115 1.31349 25671 ft 436 kts 107°
2026-05-06 19:52 51.16359 1.36030 26005 ft 439 kts 100°
2026-05-06 19:52 51.16025 1.40880 26341 ft 441 kts 94°
2026-05-06 19:52 51.15807 1.45773 26687 ft 443 kts 94°
2026-05-06 19:52 51.15573 1.50700 27027 ft 445 kts 95°
2026-05-06 19:53 51.15335 1.55523 27375 ft 447 kts 95°
2026-05-06 19:53 51.15089 1.60427 27720 ft 449 kts 95°
2026-05-06 19:53 51.14839 1.65398 28068 ft 451 kts 95°
2026-05-06 19:53 51.14588 1.70402 28406 ft 453 kts 95°
2026-05-06 19:54 51.14336 1.75419 28725 ft 456 kts 95°
2026-05-06 19:54 51.14080 1.80449 29178 ft 454 kts 95°
2026-05-06 19:54 51.13822 1.85480 29663 ft 453 kts 95°
2026-05-06 19:54 51.13565 1.90480 30124 ft 452 kts 95°
2026-05-06 19:55 51.13305 1.95480 30516 ft 452 kts 95°
2026-05-06 19:55 51.13049 2.00394 30916 ft 451 kts 95°
2026-05-06 19:55 51.12790 2.05373 31329 ft 450 kts 95°
2026-05-06 19:55 51.12528 2.10340 31744 ft 449 kts 95°
2026-05-06 19:56 51.12261 2.15306 32158 ft 448 kts 95°
2026-05-06 19:56 51.11992 2.20249 32578 ft 447 kts 95°
2026-05-06 19:56 51.11726 2.25115 32987 ft 446 kts 95°
2026-05-06 19:56 51.11457 2.30026 33395 ft 445 kts 95°
2026-05-06 19:57 51.11184 2.34939 33821 ft 444 kts 94°
2026-05-06 19:57 51.10911 2.39838 34196 ft 443 kts 94°
2026-05-06 19:57 51.10636 2.44726 34508 ft 442 kts 95°
2026-05-06 19:57 51.10364 2.49546 34783 ft 442 kts 95°
2026-05-06 19:58 51.10082 2.54423 35054 ft 443 kts 95°
2026-05-06 19:58 51.09799 2.59310 35316 ft 443 kts 95°
2026-05-06 19:58 51.09476 2.64210 35576 ft 444 kts 99°
2026-05-06 19:58 51.08791 2.68983 35806 ft 444 kts 106°
2026-05-06 19:59 51.07940 2.73708 36055 ft 444 kts 106°
2026-05-06 19:59 51.07083 2.78443 36305 ft 445 kts 106°
2026-05-06 19:59 51.06221 2.83169 36540 ft 445 kts 107°
2026-05-06 19:59 51.05361 2.87851 36785 ft 445 kts 107°
2026-05-06 20:00 51.04493 2.92568 36946 ft 446 kts 107°
2026-05-06 20:00 51.03622 2.97327 36979 ft 451 kts 107°
2026-05-06 20:00 51.01854 3.06992 36971 ft 457 kts 107°
2026-05-06 20:01 51.00062 3.16723 36969 ft 458 kts 107°
2026-05-06 20:01 50.98269 3.26375 36966 ft 458 kts 107°
2026-05-06 20:02 50.96462 3.36076 36966 ft 458 kts 107°
2026-05-06 20:02 50.94639 3.45788 36964 ft 459 kts 107°
2026-05-06 20:03 50.92809 3.55492 36970 ft 459 kts 108°
2026-05-06 20:03 50.90978 3.65131 36974 ft 459 kts 107°
2026-05-06 20:04 50.89276 3.74908 36974 ft 460 kts 105°
2026-05-06 20:04 50.87677 3.84722 36974 ft 460 kts 105°
2026-05-06 20:05 50.86051 3.94474 36976 ft 459 kts 106°
2026-05-06 20:05 50.84383 4.04199 36977 ft 459 kts 106°
2026-05-06 20:06 50.82689 4.13968 36977 ft 459 kts 106°
2026-05-06 20:06 50.80998 4.23714 36974 ft 459 kts 106°
2026-05-06 20:07 50.79300 4.33453 36964 ft 459 kts 106°
2026-05-06 20:07 50.77590 4.43196 36968 ft 459 kts 106°
2026-05-06 20:08 50.75883 4.52876 36970 ft 459 kts 107°
2026-05-06 20:08 50.74156 4.62609 36971 ft 459 kts 107°
2026-05-06 20:09 50.72436 4.72289 36970 ft 459 kts 107°
2026-05-06 20:09 50.70702 4.82012 36972 ft 459 kts 107°
2026-05-06 20:10 50.68972 4.91652 36968 ft 459 kts 107°
2026-05-06 20:10 50.67209 5.01356 36968 ft 459 kts 107°
2026-05-06 20:11 50.65454 5.10983 36968 ft 459 kts 107°
2026-05-06 20:11 50.63677 5.20659 36964 ft 459 kts 107°
2026-05-06 20:12 50.61904 5.30336 36959 ft 459 kts 107°
2026-05-06 20:12 50.60132 5.39942 36960 ft 459 kts 108°
2026-05-06 20:13 50.58328 5.49594 36955 ft 459 kts 108°
2026-05-06 20:13 50.56522 5.59236 36945 ft 459 kts 108°
2026-05-06 20:14 50.54725 5.68812 36948 ft 459 kts 108°
2026-05-06 20:14 50.52905 5.78446 36944 ft 458 kts 108°
2026-05-06 20:15 50.51094 5.88007 36942 ft 458 kts 108°
2026-05-06 20:15 50.49268 5.97612 36927 ft 458 kts 108°
2026-05-06 20:16 50.47429 6.07196 36921 ft 458 kts 108°
2026-05-06 20:16 50.45578 6.16777 36918 ft 458 kts 108°
2026-05-06 20:17 50.43727 6.26352 36915 ft 458 kts 108°
2026-05-06 20:17 50.41912 6.35851 36902 ft 458 kts 105°
2026-05-06 20:18 50.40997 6.45771 36903 ft 460 kts 98°
2026-05-06 20:18 50.40237 6.55757 36886 ft 460 kts 98°
2026-05-06 20:19 50.39471 6.65655 36888 ft 460 kts 98°
2026-05-06 20:19 50.38692 6.75619 36896 ft 460 kts 98°
2026-05-06 20:20 50.37909 6.85520 36897 ft 460 kts 99°
2026-05-06 20:20 50.37109 6.95470 36885 ft 460 kts 99°
2026-05-06 20:21 50.36302 7.05431 36893 ft 460 kts 99°
2026-05-06 20:21 50.35493 7.15346 36892 ft 460 kts 99°
2026-05-06 20:22 50.34673 7.25296 36893 ft 460 kts 99°
2026-05-06 20:22 50.33853 7.35188 36891 ft 460 kts 99°
2026-05-06 20:23 50.33016 7.45132 36884 ft 460 kts 99°
2026-05-06 20:23 50.32171 7.55072 36894 ft 460 kts 100°
2026-05-06 20:24 50.31317 7.64930 36892 ft 460 kts 100°
2026-05-06 20:24 50.30450 7.74876 36893 ft 460 kts 100°
2026-05-06 20:25 50.29587 7.84756 36877 ft 460 kts 100°
2026-05-06 20:25 50.28632 7.94703 36880 ft 459 kts 103°
2026-05-06 20:26 50.27335 8.04408 36885 ft 458 kts 105°
2026-05-06 20:26 50.25872 8.14121 36886 ft 458 kts 105°
2026-05-06 20:27 50.24459 8.23839 36888 ft 459 kts 105°
2026-05-06 20:27 50.23102 8.33606 36882 ft 459 kts 105°
2026-05-06 20:28 50.21752 8.43282 36881 ft 458 kts 105°
2026-05-06 20:28 50.20370 8.53025 36878 ft 458 kts 105°
2026-05-06 20:29 50.18974 8.62730 36880 ft 458 kts 105°
2026-05-06 20:29 50.17572 8.72384 36881 ft 458 kts 105°
2026-05-06 20:30 50.15458 8.86941 36874 ft 458 kts 105°
2026-05-06 20:31 50.14045 8.96650 36875 ft 458 kts 106°
2026-05-06 20:31 50.12626 9.06300 36867 ft 458 kts 106°
2026-05-06 20:32 50.11187 9.15990 36865 ft 458 kts 106°
2026-05-06 20:32 50.09982 9.24036 36858 ft 457 kts 107°
2026-05-06 20:33 50.08527 9.33698 36861 ft 457 kts 107°
2026-05-06 20:33 50.07083 9.43277 36852 ft 456 kts 107°
2026-05-06 20:34 50.05624 9.52903 36851 ft 456 kts 107°
2026-05-06 20:34 50.04152 9.62530 36829 ft 456 kts 107°
2026-05-06 20:35 50.02681 9.72088 36829 ft 456 kts 107°
2026-05-06 20:35 50.01201 9.81701 36835 ft 456 kts 107°
2026-05-06 20:36 49.99716 9.91289 36837 ft 456 kts 107°
2026-05-06 20:36 49.98217 10.00841 36838 ft 456 kts 107°
2026-05-06 20:37 49.96707 10.10407 36820 ft 456 kts 107°
2026-05-06 20:37 49.95187 10.19993 36820 ft 457 kts 107°
2026-05-06 20:38 49.93670 10.29531 36824 ft 457 kts 108°
2026-05-06 20:38 49.92080 10.39100 36830 ft 455 kts 112°
2026-05-06 20:39 49.89776 10.48221 36837 ft 454 kts 115°
2026-05-06 20:39 49.87438 10.57259 36819 ft 454 kts 116°
2026-05-06 20:40 49.85071 10.66361 36825 ft 455 kts 116°
2026-05-06 20:40 49.82701 10.75458 36841 ft 455 kts 116°
2026-05-06 20:41 49.80324 10.84554 36843 ft 455 kts 116°
2026-05-06 20:41 49.77953 10.93586 36825 ft 455 kts 116°
2026-05-06 20:42 49.75555 11.02673 36842 ft 456 kts 117°
2026-05-06 20:42 49.73156 11.11750 36863 ft 456 kts 117°
2026-05-06 20:43 49.70743 11.20833 36862 ft 456 kts 117°
2026-05-06 20:43 49.68327 11.29835 36848 ft 456 kts 117°
2026-05-06 20:44 49.65888 11.38911 36838 ft 456 kts 117°
2026-05-06 20:44 49.63675 11.48118 36845 ft 459 kts 112°
2026-05-06 20:45 49.61815 11.57541 36846 ft 460 kts 111°
2026-05-06 20:45 49.59981 11.66937 36835 ft 459 kts 112°
2026-05-06 20:46 49.58041 11.76326 36819 ft 458 kts 113°
2026-05-06 20:46 49.56058 11.85620 36825 ft 459 kts 113°
2026-05-06 20:47 49.54057 11.94974 36837 ft 459 kts 113°
2026-05-06 20:47 49.52071 12.04351 36846 ft 460 kts 113°
2026-05-06 20:48 49.50100 12.13666 36848 ft 460 kts 113°
2026-05-06 20:48 49.48091 12.23029 36832 ft 460 kts 114°
2026-05-06 20:49 49.46083 12.32330 36836 ft 461 kts 114°
2026-05-06 20:49 49.44043 12.41717 36836 ft 462 kts 114°
2026-05-06 20:50 49.42021 12.51049 36838 ft 462 kts 114°
2026-05-06 20:50 49.39980 12.60438 36819 ft 462 kts 114°
2026-05-06 20:51 49.37937 12.69751 36825 ft 463 kts 114°
2026-05-06 20:51 49.35848 12.79113 36830 ft 463 kts 115°
2026-05-06 20:52 49.33610 12.88361 36845 ft 462 kts 116°
2026-05-06 20:52 49.31298 12.97554 36848 ft 462 kts 117°
2026-05-06 20:53 49.29010 13.06729 36847 ft 463 kts 116°
2026-05-06 20:53 49.26732 13.15958 36853 ft 463 kts 116°
2026-05-06 20:54 49.24464 13.25126 36857 ft 463 kts 116°
2026-05-06 20:54 49.22106 13.34307 36858 ft 462 kts 118°
2026-05-06 20:55 49.19654 13.43315 36842 ft 461 kts 118°
2026-05-06 20:55 49.17169 13.52383 36854 ft 462 kts 118°
2026-05-06 20:56 49.14704 13.61455 36873 ft 462 kts 118°
2026-05-06 20:56 49.12253 13.70474 36878 ft 462 kts 118°
2026-05-06 20:57 49.09791 13.79540 36881 ft 462 kts 118°
2026-05-06 20:57 49.07315 13.88591 36857 ft 462 kts 119°
2026-05-06 20:58 49.04835 13.97574 36864 ft 462 kts 119°
2026-05-06 20:58 49.02335 14.06611 36855 ft 462 kts 119°
2026-05-06 20:59 48.99841 14.15635 36899 ft 461 kts 119°
2026-05-06 20:59 48.97345 14.24622 36868 ft 458 kts 120°
2026-05-06 21:00 48.94725 14.33342 36880 ft 449 kts 127°
2026-05-06 21:00 48.91126 14.40927 36871 ft 439 kts 135°
2026-05-06 21:01 48.87402 14.48284 36883 ft 439 kts 134°
2026-05-06 21:01 48.83704 14.55603 36868 ft 439 kts 134°
2026-05-06 21:02 48.79983 14.62951 36840 ft 438 kts 135°
2026-05-06 21:02 48.76250 14.70289 36836 ft 438 kts 135°
2026-05-06 21:03 48.72535 14.77575 36855 ft 438 kts 135°
2026-05-06 21:03 48.68797 14.84878 36838 ft 438 kts 135°
2026-05-06 21:04 48.65076 14.92118 36842 ft 438 kts 135°
2026-05-06 21:04 48.63193 14.95768 36237 ft 442 kts 135°
2026-05-06 21:04 48.61290 14.99446 35458 ft 446 kts 135°
2026-05-06 21:04 48.59503 15.03349 34791 ft 457 kts 125°
2026-05-06 21:05 48.58252 15.07820 34139 ft 470 kts 112°
2026-05-06 21:05 48.57417 15.12628 33398 ft 475 kts 111°
2026-05-06 21:05 48.57158 15.14152 33144 ft 476 kts 111°
2026-05-06 21:05 48.56663 15.17066 32667 ft 477 kts 111°
2026-05-06 21:06 48.56231 15.19596 32271 ft 478 kts 111°
2026-05-06 21:06 48.55392 15.24479 31530 ft 479 kts 110°
2026-05-06 21:06 48.54553 15.29333 31001 ft 475 kts 110°
2026-05-06 21:06 48.53716 15.34148 30431 ft 471 kts 110°
2026-05-06 21:07 48.52893 15.38860 29908 ft 468 kts 110°
2026-05-06 21:07 48.52102 15.43621 29295 ft 467 kts 105°
2026-05-06 21:07 48.51738 15.48501 28732 ft 466 kts 99°
2026-05-06 21:07 48.51462 15.53363 28191 ft 461 kts 99°
2026-05-06 21:08 48.51198 15.58108 27654 ft 457 kts 99°
2026-05-06 21:08 48.50933 15.62879 27130 ft 452 kts 99°
2026-05-06 21:08 48.50671 15.67579 26625 ft 447 kts 99°
2026-05-06 21:08 48.50408 15.72229 26132 ft 443 kts 99°
2026-05-06 21:09 48.50143 15.76829 25624 ft 438 kts 99°
2026-05-06 21:09 48.49873 15.81387 25154 ft 433 kts 99°
2026-05-06 21:09 48.49608 15.85838 24697 ft 429 kts 99°
2026-05-06 21:09 48.49341 15.90299 24251 ft 424 kts 99°
2026-05-06 21:10 48.49072 15.94718 23807 ft 420 kts 99°
2026-05-06 21:10 48.48805 15.99094 23411 ft 415 kts 100°
2026-05-06 21:10 48.48545 16.03378 23276 ft 403 kts 100°
2026-05-06 21:10 48.48295 16.07486 23131 ft 392 kts 100°
2026-05-06 21:11 48.47971 16.11478 22984 ft 375 kts 109°
2026-05-06 21:11 48.47054 16.15023 22849 ft 352 kts 127°
2026-05-06 21:11 48.45601 16.17847 22690 ft 332 kts 142°
2026-05-06 21:11 48.43809 16.19881 22551 ft 314 kts 156°
2026-05-06 21:12 48.41866 16.21105 22418 ft 299 kts 169°
2026-05-06 21:12 48.39863 16.21595 22282 ft 286 kts 181°
2026-05-06 21:12 48.37916 16.21410 22136 ft 275 kts 193°
2026-05-06 21:12 48.36097 16.20616 21881 ft 270 kts 204°
2026-05-06 21:13 48.34465 16.19264 21586 ft 268 kts 216°
2026-05-06 21:13 48.33077 16.17445 21290 ft 267 kts 226°
2026-05-06 21:13 48.31961 16.15200 20993 ft 268 kts 238°
2026-05-06 21:13 48.31186 16.12645 20697 ft 269 kts 249°
2026-05-06 21:14 48.30782 16.09887 20411 ft 272 kts 260°
2026-05-06 21:14 48.30769 16.07069 20162 ft 275 kts 271°
2026-05-06 21:14 48.31130 16.04231 19833 ft 279 kts 278°
2026-05-06 21:14 48.31687 16.01356 19259 ft 291 kts 282°
2026-05-06 21:15 48.32341 15.98463 18905 ft 293 kts 283°
2026-05-06 21:15 48.33021 15.95582 18597 ft 293 kts 283°
2026-05-06 21:15 48.33701 15.92696 18304 ft 292 kts 283°
2026-05-06 21:15 48.34364 15.89829 18003 ft 290 kts 283°
2026-05-06 21:16 48.35016 15.86959 17687 ft 289 kts 283°
2026-05-06 21:16 48.35780 15.84186 17367 ft 292 kts 293°
2026-05-06 21:16 48.36945 15.81646 17060 ft 297 kts 306°
2026-05-06 21:16 48.38499 15.79559 16752 ft 302 kts 321°
2026-05-06 21:17 48.40374 15.78078 16451 ft 307 kts 336°
2026-05-06 21:17 48.42461 15.77330 16151 ft 310 kts 351°
2026-05-06 21:17 48.44626 15.77392 15842 ft 313 kts
2026-05-06 21:17 48.46719 15.78274 15563 ft 314 kts 22°
2026-05-06 21:18 48.48579 15.79896 15290 ft 313 kts 38°
2026-05-06 21:18 48.50132 15.82181 15012 ft 311 kts 53°
2026-05-06 21:18 48.51249 15.84940 14733 ft 307 kts 69°
2026-05-06 21:18 48.51877 15.87987 14442 ft 301 kts 83°
2026-05-06 21:19 48.52016 15.90058 14263 ft 298 kts 93°
2026-05-06 21:19 48.51817 15.93128 13985 ft 292 kts 105°
2026-05-06 21:19 48.51317 15.96090 13690 ft 290 kts 110°
2026-05-06 21:19 48.50702 15.98976 13405 ft 288 kts 112°
2026-05-06 21:20 48.50041 16.01822 13102 ft 286 kts 113°
2026-05-06 21:20 48.49383 16.04621 12804 ft 285 kts 113°
2026-05-06 21:20 48.48726 16.07431 12508 ft 284 kts 113°
2026-05-06 21:20 48.48069 16.10230 12206 ft 282 kts 116°
2026-05-06 21:21 48.47018 16.12636 11914 ft 272 kts 141°
2026-05-06 21:21 48.45470 16.14156 11612 ft 263 kts 163°
2026-05-06 21:21 48.43705 16.14643 11315 ft 255 kts 185°
2026-05-06 21:21 48.41995 16.14093 11023 ft 251 kts 206°
2026-05-06 21:22 48.40565 16.12636 10734 ft 248 kts 226°
2026-05-06 21:22 48.39606 16.10528 10448 ft 249 kts 246°
2026-05-06 21:22 48.39219 16.07987 10159 ft 252 kts 266°
2026-05-06 21:22 48.39466 16.05377 9850 ft 255 kts 282°
2026-05-06 21:23 48.39979 16.02806 9561 ft 256 kts 285°
2026-05-06 21:23 48.40551 16.00272 9277 ft 255 kts 285°
2026-05-06 21:23 48.41135 15.97754 9012 ft 254 kts 285°
2026-05-06 21:23 48.41713 15.95256 8750 ft 252 kts 285°
2026-05-06 21:24 48.42407 15.92842 8497 ft 253 kts 299°
2026-05-06 21:24 48.43610 15.90892 8241 ft 258 kts 320°
2026-05-06 21:24 48.45223 15.89751 7973 ft 264 kts 343°
2026-05-06 21:24 48.47073 15.89641 7708 ft 269 kts
2026-05-06 21:25 48.48820 15.90673 7443 ft 273 kts 32°
2026-05-06 21:25 48.50154 15.92694 7158 ft 274 kts 58°
2026-05-06 21:25 48.50819 15.95338 6848 ft 273 kts 84°
2026-05-06 21:25 48.50732 15.98158 6564 ft 269 kts 107°
2026-05-06 21:26 48.50218 16.00863 6233 ft 269 kts 110°
2026-05-06 21:26 48.49630 16.03544 5996 ft 266 kts 111°
2026-05-06 21:26 48.49019 16.06208 5914 ft 276 kts 112°
2026-05-06 21:26 48.48120 16.08823 5793 ft 284 kts 132°
2026-05-06 21:27 48.46690 16.10788 5663 ft 279 kts 153°
2026-05-06 21:27 48.44957 16.12033 5545 ft 275 kts 161°
2026-05-06 21:27 48.43200 16.13185 5403 ft 275 kts 161°
2026-05-06 21:27 48.41446 16.14339 5276 ft 275 kts 160°
2026-05-06 21:28 48.39692 16.15497 5148 ft 274 kts 160°
2026-05-06 21:28 48.37978 16.16633 5025 ft 265 kts 160°
2026-05-06 21:28 48.36317 16.17737 4973 ft 256 kts 161°
2026-05-06 21:28 48.34686 16.18816 4980 ft 256 kts 161°
2026-05-06 21:29 48.33072 16.19955 4980 ft 258 kts 153°
2026-05-06 21:29 48.31717 16.21707 4983 ft 265 kts 132°
2026-05-06 21:29 48.30814 16.24136 4984 ft 270 kts 110°
2026-05-06 21:29 48.30531 16.26934 4985 ft 272 kts 88°
2026-05-06 21:30 48.30912 16.29713 4987 ft 273 kts 66°
2026-05-06 21:30 48.31913 16.32110 4990 ft 269 kts 43°
2026-05-06 21:30 48.33371 16.33759 4989 ft 263 kts 21°
2026-05-06 21:30 48.35101 16.34510 4988 ft 256 kts 360°
2026-05-06 21:31 48.36850 16.34312 4989 ft 249 kts 341°
2026-05-06 21:31 48.38504 16.33605 4985 ft 249 kts 339°
2026-05-06 21:31 48.40179 16.32882 4983 ft 249 kts 339°
2026-05-06 21:31 48.41850 16.32163 4982 ft 249 kts 340°
2026-05-06 21:32 48.43499 16.31457 4975 ft 242 kts 340°
2026-05-06 21:32 48.46711 16.30129 4974 ft 241 kts 347°
2026-05-06 21:32 48.48400 16.30303 4977 ft 249 kts 15°
2026-05-06 21:33 48.49882 16.31683 4975 ft 256 kts 45°
2026-05-06 21:33 48.50772 16.34001 4978 ft 258 kts 73°
2026-05-06 21:33 48.51100 16.36618 4975 ft 257 kts 92°
2026-05-06 21:33 48.50730 16.39231 4975 ft 254 kts 119°
2026-05-06 21:34 48.49679 16.41309 4975 ft 248 kts 146°
2026-05-06 21:34 48.48177 16.42490 4977 ft 241 kts 169°
2026-05-06 21:34 48.46557 16.43173 4975 ft 241 kts 169°
2026-05-06 21:34 48.44961 16.43848 4980 ft 241 kts 169°
2026-05-06 21:35 48.43348 16.44532 4981 ft 241 kts 169°
2026-05-06 21:35 48.41723 16.45180 4987 ft 242 kts 169°
2026-05-06 21:35 48.40091 16.45846 4988 ft 242 kts 168°
2026-05-06 21:35 48.38467 16.46538 4989 ft 242 kts 168°
2026-05-06 21:36 48.36877 16.47221 4984 ft 235 kts 169°
2026-05-06 21:36 48.35325 16.47887 4989 ft 226 kts 169°
2026-05-06 21:36 48.33855 16.48516 4928 ft 215 kts 169°
2026-05-06 21:36 48.32426 16.49124 4712 ft 212 kts 170°
2026-05-06 21:37 48.31020 16.49723 4453 ft 213 kts 170°
2026-05-06 21:37 48.29594 16.50330 4170 ft 213 kts 170°
2026-05-06 21:37 48.28179 16.50935 3897 ft 208 kts 171°
2026-05-06 21:37 48.26807 16.51521 3612 ft 198 kts 172°
2026-05-06 21:38 48.25549 16.52061 3366 ft 183 kts 172°
2026-05-06 21:38 48.24350 16.52570 3129 ft 175 kts 173°
2026-05-06 21:38 48.23221 16.53051 2915 ft 161 kts 172°
2026-05-06 21:38 48.22174 16.53496 2702 ft 153 kts 172°
2026-05-06 21:39 48.21168 16.53922 2506 ft 147 kts 173°
2026-05-06 21:39 48.20210 16.54328 2330 ft 142 kts 172°
2026-05-06 21:39 48.19295 16.54722 2120 ft 132 kts 173°
2026-05-06 21:39 48.18420 16.55095 1957 ft 129 kts 172°
2026-05-06 21:40 48.17557 16.55457 1763 ft 128 kts 171°
2026-05-06 21:40 48.16702 16.55821 1609 ft 127 kts 171°
2026-05-06 21:40 48.15861 16.56183 1450 ft 127 kts 169°
2026-05-06 21:40 48.14983 16.56547 1231 ft 133 kts 168°
2026-05-06 21:41 48.14117 16.56914 1075 ft 129 kts 166°
2026-05-06 21:41 48.13249 16.57288 855 ft 130 kts 167°
2026-05-06 21:41 48.12385 16.57646 733 ft 128 kts 166°
2026-05-06 21:41 48.11533 16.58005 623 ft 120 kts 165°
2026-05-06 21:42 48.10853 16.58293 610 ft 69 kts 164°
2026-05-06 21:42 48.10581 16.58407 618 ft 31 kts 164°
2026-05-06 21:42 48.10377 16.58468 624 ft 29 kts 179°
2026-05-06 21:42 48.10194 16.58424 615 ft 21 kts 195°
2026-05-06 21:43 48.10128 16.58341 609 ft 13 kts 279°
2026-05-06 21:43 48.10213 16.58281 615 ft 15 kts 351°
2026-05-06 21:43 48.10321 16.58239 615 ft 17 kts 344°
2026-05-06 21:43 48.10451 16.58184 621 ft 21 kts 344°
2026-05-06 21:44 48.10608 16.58119 620 ft 25 kts 344°
2026-05-06 21:44 48.10783 16.58044 621 ft 28 kts 344°
2026-05-06 21:44 48.10976 16.57961 618 ft 30 kts 344°
2026-05-06 21:44 48.11109 16.57862 613 ft 17 kts 297°
2026-05-06 21:45 48.11169 16.57676 612 ft 22 kts 296°
2026-05-06 21:45 48.11239 16.57463 615 ft 24 kts 296°
2026-05-06 21:45 48.11316 16.57228 623 ft 26 kts 297°
2026-05-06 21:45 48.11400 16.56971 620 ft 29 kts 296°
2026-05-06 21:46 48.11476 16.56874 613 ft 13 kts 28°
2026-05-06 21:46 48.11572 16.56912 611 ft 16 kts 333°
2026-05-06 21:46 48.11628 16.56766 612 ft 18 kts 296°
2026-05-06 21:46 48.11676 16.56655 623 ft 5 kts 346°
2026-05-06 21:47 48.11716 16.56689 614 ft 8 kts 29°
2026-05-06 21:47 48.11753 16.56714 623 ft 0 kts 26°